CDT,Max TemperatureF,Mean TemperatureF,Min TemperatureF,Max Dew PointF,MeanDew PointF,Min DewpointF,Max Humidity, Mean Humidity, Min Humidity, Max Sea Level PressureIn, Mean Sea Level PressureIn, Min Sea Level PressureIn, Max VisibilityMiles, Mean VisibilityMiles, Min VisibilityMiles, Max Wind SpeedMPH, Mean Wind SpeedMPH, Max Gust SpeedMPH,PrecipitationIn, CloudCover, Events, WindDirDegrees
2013-3-1,76,54,31,22,14,7,59,34,8,30.27,30.21,30.12,10,10,9,28,7,36,0.00,0,,327
2013-3-2,73,55,37,25,19,12,40,27,13,30.45,30.32,30.22,10,10,10,10,4,13,0.00,0,,327
2013-3-3,83,64,44,23,19,15,41,25,8,30.21,30.02,29.84,10,10,10,25,10,31,0.00,0,,118
2013-3-4,92,72,51,44,31,18,64,36,7,29.86,29.76,29.66,10,10,9,14,6,,0.00,0,,91
2013-3-5,72,60,47,37,25,17,46,31,15,30.38,30.21,29.81,10,10,7,29,11,44,0.00,1,,335
2013-3-6,62,52,41,23,15,11,45,30,14,30.41,30.27,30.15,10,10,10,18,8,24,0.00,0,,133
2013-3-7,73,59,45,56,41,15,66,44,22,30.15,30.06,29.99,10,10,10,23,11,29,0.00,1,,122
2013-3-8,75,70,65,62,59,57,81,68,54,30.03,29.95,29.86,10,10,9,22,13,29,0.00,8,,122
2013-3-9,92,79,66,63,54,34,87,53,19,29.89,29.70,29.47,10,10,8,23,13,36,T,5,Rain,121
2013-3-10,71,60,48,28,20,13,28,20,11,30.15,29.97,29.74,10,10,10,25,14,36,0.00,2,,325
2013-3-11,75,58,40,25,19,16,49,31,12,30.17,30.08,29.96,10,10,10,16,4,21,0.00,1,,275
2013-3-12,84,65,46,26,17,11,37,22,6,30.17,30.05,30.01,10,10,10,14,6,18,0.00,0,,92
2013-3-13,80,62,44,40,34,27,52,36,19,30.38,30.25,30.17,10,10,10,18,7,23,0.00,0,,117
2013-3-14,81,68,54,52,43,36,83,52,21,30.30,30.22,30.13,10,10,10,21,11,28,0.00,0,,125
2013-3-15,85,71,56,53,45,35,86,54,22,30.16,30.04,29.90,10,10,10,21,10,25,0.00,0,,121
2013-3-16,90,74,58,51,44,38,67,42,17,29.90,29.77,29.63,10,10,10,17,10,23,0.00,0,,123
2013-3-17,95,78,61,59,43,18,90,48,6,29.79,29.67,29.55,10,10,8,15,6,21,0.00,1,,108
2013-3-18,94,75,56,44,27,11,57,31,5,29.86,29.76,29.66,10,10,10,26,8,38,0.00,0,,334
2013-3-19,87,71,55,54,44,28,52,38,24,29.96,29.86,29.73,10,10,8,20,7,24,0.00,0,,119
2013-3-20,77,71,64,56,48,42,58,46,33,30.21,30.04,29.86,10,10,10,17,9,24,T,6,Rain,71
2013-3-21,81,71,61,59,55,52,78,60,42,29.93,29.72,29.55,10,10,10,22,13,29,0.00,3,,131
2013-3-22,93,75,57,63,55,42,90,54,18,29.72,29.61,29.52,10,10,7,17,6,21,0.00,1,,113
2013-3-23,94,80,65,66,49,15,90,48,6,29.74,29.62,29.51,10,9,6,26,10,35,0.00,3,,289
2013-3-24,74,60,46,33,15,5,46,28,10,30.22,30.01,29.70,10,9,2,33,13,45,0.00,2,,338
2013-3-25,64,52,39,22,15,10,44,29,14,30.34,30.22,30.09,10,10,8,16,5,20,0.00,0,,132
2013-3-26,69,56,43,27,17,8,36,26,15,30.44,30.31,30.19,10,10,10,24,11,30,0.00,0,,125
2013-3-27,73,61,48,49,40,30,60,48,36,30.22,30.14,30.05,10,10,10,26,14,33,0.00,0,,131
2013-3-28,77,70,62,58,54,49,68,59,50,30.12,30.06,30.00,10,10,10,21,12,28,0.00,7,,128
2013-3-29,78,72,66,59,58,55,78,64,50,30.10,30.03,29.95,10,10,10,17,12,24,0.00,6,,129
2013-3-30,89,77,64,61,58,54,87,60,32,30.03,29.93,29.80,10,10,8,14,8,20,0.00,3,,126
2013-3-31,92,79,66,65,61,55,93,64,34,29.91,29.83,29.73,10,10,7,25,7,36,0.06,2,Rain,102